W8APS Weather Reports


time (UTC)temp
F
wind
direction
speed
knots
gust
knots
rain 1hr
in
rain 24hr
in
rain mn
in
humidity
%
barometer
mb
20260504031013 52 199 6.1 13.0 0.00 0.00 0.00 63 1008.2
20260504030515 52 203 5.2 13.0 0.00 0.00 0.00 63 1008.3
20260504030032 52 201 4.3 14.8 0.00 0.00 0.00 63 1008.4
20260504025514 53 216 6.1 14.8 0.00 0.00 0.00 62 1008.3
20260504025014 53 208 4.3 14.8 0.00 0.00 0.00 63 1008.3
20260504024531 53 184 4.3 14.8 0.00 0.00 0.00 63 1008.4
20260504024015 53 157 4.3 11.3 0.00 0.00 0.00 62 1008.5
20260504023513 53 180 3.5 8.7 0.00 0.00 0.00 62 1008.6
20260504023031 53 201 3.5 9.6 0.00 0.00 0.00 63 1008.5
20260504022518 53 177 2.6 10.4 0.00 0.00 0.00 62 1008.7
20260504022016 53 181 3.5 10.4 0.00 0.00 0.00 62 1008.7
20260504021530 53 184 2.6 10.4 0.00 0.00 0.00 62 1008.7
20260504021014 53 224 4.3 10.4 0.00 0.00 0.00 62 1008.7
20260504020513 53 203 4.3 10.4 0.00 0.00 0.00 62 1008.7
20260504020032 53 179 2.6 12.2 0.00 0.00 0.00 62 1008.7
20260504015517 53 215 5.2 12.2 0.00 0.00 0.00 61 1008.6
20260504015021 53 187 5.2 12.2 0.00 0.00 0.00 61 1008.6
20260504014542 53 212 4.3 12.2 0.00 0.00 0.00 61 1008.4
20260504014018 53 198 2.6 12.2 0.00 0.00 0.00 61 1008.6
20260504013514 53 224 5.2 12.2 0.00 0.00 0.00 61 1008.6
20260504013034 54 191 5.2 12.2 0.00 0.00 0.00 60 1008.5
20260504012520 54 169 3.5 12.2 0.00 0.00 0.00 60 1008.5
20260504012014 54 199 4.3 12.2 0.00 0.00 0.00 59 1008.5
20260504011530 54 237 1.7 10.4 0.00 0.00 0.00 60 1008.5
20260504011013 54 221 2.6 10.4 0.00 0.00 0.00 58 1008.6
20260504010514 54 212 4.3 9.6 0.00 0.00 0.00 59 1008.6
20260504010032 54 241 2.6 13.9 0.00 0.00 0.00 59 1008.7
20260504005516 55 238 3.5 13.9 0.00 0.00 0.00 58 1008.7
20260504005016 55 188 3.5 12.2 0.00 0.00 0.00 58 1008.7
20260504004530 55 212 5.2 15.6 0.00 0.00 0.00 57 1008.6
20260504004016 55 219 5.2 15.6 0.00 0.00 0.00 57 1008.7
20260504003515 56 214 7.8 18.2 0.00 0.00 0.00 56 1008.7
20260504003029 56 208 6.1 19.1 0.00 0.00 0.00 55 1008.5
20260504002514 56 237 7.8 19.1 0.00 0.00 0.00 55 1008.3
20260504002013 56 214 8.7 20.9 0.00 0.00 0.00 54 1008.3
20260504001529 57 248 8.7 20.9 0.00 0.00 0.00 53 1008.3
20260504001016 57 212 8.7 20.0 0.00 0.00 0.00 52 1008.3
20260504000514 57 198 8.7 20.0 0.00 0.00 0.00 50 1008.3
20260504000039 57 216 7.0 14.8 0.00 0.00 0.00 50 1008.3
20260503235515 57 219 7.0 17.4 0.00 0.00 0.00 50 1008.2
20260503235016 58 246 7.0 17.4 0.00 0.00 0.00 50 1008.1
20260503234532 58 238 7.8 16.5 0.00 0.00 0.00 49 1008.1
20260503234014 58 209 3.5 13.0 0.00 0.00 0.00 50 1008.1
20260503233514 58 222 5.2 16.5 0.00 0.00 0.00 49 1008.1
20260503233032 58 236 8.7 16.5 0.00 0.00 0.00 48 1008.0
20260503232515 58 212 8.7 16.5 0.00 0.00 0.00 47 1008.1
20260503232015 58 221 5.2 14.8 0.00 0.00 0.00 48 1008.2
20260503231530 59 222 7.0 14.8 0.00 0.00 0.00 47 1008.2
20260503231014 59 199 5.2 13.9 0.00 0.00 0.00 47 1008.3
20260503230516 59 221 8.7 13.9 0.00 0.00 0.00 46 1008.2
20260503230031 59 233 6.1 15.6 0.00 0.00 0.00 46 1008.4
20260503225520 59 234 5.2 15.6 0.00 0.00 0.00 47 1008.4
20260503225013 59 226 6.1 15.6 0.00 0.00 0.00 45 1008.3
20260503224536 59 229 8.7 18.2 0.00 0.00 0.00 44 1008.4
20260503224015 59 212 6.1 25.2 0.00 0.00 0.00 45 1008.4
20260503223514 59 204 8.7 25.2 0.00 0.00 0.00 45 1008.4
20260503223031 60 229 9.6 25.2 0.00 0.00 0.00 44 1008.5
20260503222513 60 211 7.8 18.2 0.00 0.00 0.00 44 1008.3
20260503222014 60 222 9.6 18.2 0.00 0.00 0.00 44 1008.5
20260503221530 60 220 7.0 14.8 0.00 0.00 0.00 43 1008.3
20260503221016 60 152 6.1 16.5 0.00 0.00 0.00 44 1008.3
20260503220516 60 225 5.2 19.1 0.00 0.00 0.00 44 1008.4
20260503220032 60 251 7.8 19.1 0.00 0.00 0.00 43 1008.6
20260503215516 60 203 7.8 21.7 0.00 0.00 0.00 42 1008.5
20260503215016 60 222 7.0 21.7 0.00 0.00 0.00 43 1008.4
20260503214533 61 213 7.8 23.5 0.00 0.00 0.00 42 1008.5
20260503214014 61 226 10.4 23.5 0.00 0.00 0.00 41 1008.4
20260503213514 62 257 7.0 17.4 0.00 0.00 0.00 42 1008.6
20260503213033 61 256 6.1 17.4 0.00 0.00 0.00 43 1008.4
20260503212521 61 256 8.7 17.4 0.00 0.00 0.00 40 1008.5
20260503212015 61 238 8.7 16.5 0.00 0.00 0.00 39 1008.5
20260503211535 61 227 7.8 20.9 0.00 0.00 0.00 39 1008.4
20260503211017 61 216 9.6 20.9 0.00 0.00 0.00 40 1008.5
20260503210515 61 207 9.6 18.2 0.00 0.00 0.00 40 1008.3
20260503210043 61 237 7.0 18.2 0.00 0.00 0.00 41 1008.5
20260503205519 61 206 6.1 18.2 0.00 0.00 0.00 39 1008.5
20260503205015 61 217 8.7 16.5 0.00 0.00 0.00 40 1008.6
20260503204532 61 233 5.2 15.6 0.00 0.00 0.00 40 1008.5
20260503204018 61 221 7.0 21.7 0.00 0.00 0.00 40 1008.6
20260503203517 61 201 7.8 21.7 0.00 0.00 0.00 41 1008.6
20260503203031 60 209 9.6 21.7 0.00 0.00 0.00 41 1008.6
20260503202515 60 197 7.0 13.0 0.00 0.00 0.00 40 1008.7
20260503202013 60 220 6.1 15.6 0.00 0.00 0.00 40 1008.6
20260503201534 60 223 7.8 16.5 0.00 0.00 0.00 39 1008.7
20260503201016 61 238 6.1 16.5 0.00 0.00 0.00 40 1008.8
20260503200514 60 213 7.8 20.0 0.00 0.00 0.00 41 1008.9
20260503200040 60 212 6.1 23.5 0.00 0.00 0.00 39 1008.9
20260503195517 61 215 10.4 23.5 0.00 0.00 0.00 39 1009.0
20260503195014 61 193 7.8 21.7 0.00 0.00 0.00 40 1009.1
20260503194530 61 265 9.6 21.7 0.00 0.00 0.00 38 1009.0
20260503194016 61 259 11.3 20.9 0.00 0.00 0.00 37 1009.2
20260503193516 61 237 7.8 17.4 0.00 0.00 0.00 40 1009.1
20260503193032 60 249 7.0 17.4 0.00 0.00 0.00 42 1009.2
20260503192515 60 219 6.1 18.2 0.00 0.00 0.00 42 1009.3
20260503192016 60 236 7.8 18.2 0.00 0.00 0.00 42 1009.3
20260503191530 60 194 7.0 16.5 0.00 0.00 0.00 41 1009.4
20260503191016 60 217 7.0 15.6 0.00 0.00 0.00 43 1009.5
20260503190514 60 191 9.6 18.2 0.00 0.00 0.00 41 1009.5
20260503190037 60 221 9.6 22.6 0.00 0.00 0.00 42 1009.5
20260503185514 60 288 7.8 22.6 0.00 0.00 0.00 43 1009.6
20260503185018 60 217 10.4 24.3 0.00 0.00 0.00 42 1009.7
20260503184531 60 217 13.0 24.3 0.00 0.00 0.00 42 1009.7
20260503184016 60 263 12.2 24.3 0.00 0.00 0.00 41 1009.9
20260503183515 60 210 8.7 18.2 0.00 0.00 0.00 42 1009.9
20260503183034 60 224 4.3 16.5 0.00 0.00 0.00 44 1009.9
20260503182513 59 226 6.1 16.5 0.00 0.00 0.00 42 1010.1
20260503182014 59 189 7.0 16.5 0.00 0.00 0.00 42 1010.2
20260503181534 59 202 5.2 18.2 0.00 0.00 0.00 43 1010.2
20260503181017 59 229 6.1 18.2 0.00 0.00 0.00 42 1010.2
20260503180514 60 214 7.0 17.4 0.00 0.00 0.00 41 1010.2
20260503180031 60 204 6.1 17.4 0.00 0.00 0.00 42 1010.2
20260503175515 60 231 4.3 11.3 0.00 0.00 0.00 43 1010.2
20260503175014 59 238 5.2 19.1 0.00 0.00 0.00 41 1010.3
20260503174531 59 225 6.1 19.1 0.00 0.00 0.00 42 1010.4
20260503174020 58 233 7.8 17.4 0.00 0.00 0.00 42 1010.6
20260503173516 58 247 9.6 16.5 0.00 0.00 0.00 43 1010.8
20260503173036 57 258 8.7 20.9 0.00 0.00 0.00 42 1010.9
20260503172515 57 190 8.7 20.9 0.00 0.00 0.00 42 1010.9
20260503172015 57 214 9.6 19.1 0.00 0.00 0.00 41 1011.0
20260503171535 57 223 9.6 18.2 0.00 0.00 0.00 41 1011.0
20260503171014 57 208 9.6 18.2 0.00 0.00 0.00 42 1011.0
20260503170516 57 214 6.1 15.6 0.00 0.00 0.00 41 1011.0
20260503150516 56 259 7.8 18.2 0.00 0.00 0.00 44 1012.1
20260503131015 50 215 8.7 13.9 0.00 0.00 0.00 48 1012.7
20260503130516 50 240 5.2 13.9 0.00 0.00 0.00 50 1012.7
20260503110515 41 159 2.6 7.0 0.00 0.00 0.00 59 1012.7
20260503081546 37 0 0.0 0.9 0.00 0.00 0.00 66 1013.9
20260503081013 37 0 0.0 1.7 0.00 0.00 0.00 65 1013.9
20260503080513 37 0 0.0 1.7 0.00 0.00 0.00 64 1013.9
20260503072516 38 225 0.0 1.7 0.00 0.00 0.00 62 1014.0
20260503072014 37 221 0.9 1.7 0.00 0.00 0.00 62 1014.0
20260503071539 37 227 0.0 1.7 0.00 0.00 0.00 63 1014.0
20260503071018 37 226 0.0 1.7 0.00 0.00 0.00 63 1014.0
20260503070513 37 225 0.0 0.9 0.00 0.00 0.00 63 1014.1
20260503055018 38 224 0.9 1.7 0.00 0.00 0.00 64 1014.6
20260503054536 38 229 0.0 2.6 0.00 0.00 0.00 64 1014.7
20260503054014 39 232 0.9 4.3 0.00 0.00 0.00 64 1014.7
20260503053514 39 224 0.9 4.3 0.00 0.00 0.00 64 1014.7
20260503053030 39 236 0.9 4.3 0.00 0.00 0.00 65 1014.7
20260503052520 39 212 0.9 2.6 0.00 0.00 0.00 65 1014.7
20260503052014 39 223 0.9 2.6 0.00 0.00 0.00 65 1014.7
20260503051529 39 233 0.0 2.6 0.00 0.00 0.00 67 1014.8
20260503051013 39 235 0.9 2.6 0.00 0.00 0.00 66 1014.8
20260503050513 39 230 0.9 1.7 0.00 0.00 0.00 67 1014.9
20260503050029 39 226 0.9 1.7 0.00 0.00 0.00 68 1014.8
20260503045516 39 212 0.9 1.7 0.00 0.00 0.00 70 1014.9
20260503045018 39 209 0.0 1.7 0.00 0.00 0.00 70 1014.9
20260503044540 39 0 0.0 1.7 0.00 0.00 0.00 70 1014.9
20260503044016 39 0 0.0 1.7 0.00 0.00 0.00 70 1015.0
20260503043516 39 0 0.0 0.9 0.00 0.00 0.00 71 1015.0
20260503043032 39 0 0.0 0.9 0.00 0.00 0.00 70 1015.0
20260503042514 39 0 0.0 1.7 0.00 0.00 0.00 68 1015.0
20260503042016 39 0 0.0 1.7 0.00 0.00 0.00 66 1015.0
20260503041530 39 226 0.0 1.7 0.00 0.00 0.00 67 1014.9
20260503041015 39 210 0.0 0.9 0.00 0.00 0.00 67 1015.1
20260503040514 39 184 0.0 0.9 0.00 0.00 0.00 66 1015.0
20260503040030 39 0 0.0 0.9 0.00 0.00 0.00 68 1015.1
20260503035515 39 213 0.0 0.9 0.00 0.00 0.00 68 1015.0
20260503035018 39 0 0.0 0.9 0.00 0.00 0.00 67 1015.0
20260503034531 39 0 0.0 0.9 0.00 0.00 0.00 66 1015.1
20260503034014 40 188 0.0 1.7 0.00 0.00 0.00 65 1015.1
20260503033517 40 182 0.0 1.7 0.00 0.00 0.00 66 1015.1
20260503033031 40 203 0.0 1.7 0.00 0.00 0.00 65 1015.1
20260503032516 40 188 0.0 0.9 0.00 0.00 0.00 65 1015.2
20260503032014 40 203 0.0 1.7 0.00 0.00 0.00 65 1015.2
20260503031530 40 0 0.0 1.7 0.00 0.00 0.00 65 1015.3